NOAA 16 DEB, 41199

Orbit data source: Space-Track

NOAA 16 DEB, 41199 is space debris in SSO originally from a launch on Thu, 21 Sep 2000 UTC launched from the Air Force Western Test Range (AFWTR). Debris objects in space refer to the collection of defunct objects orbiting the Earth. Examples of debris include non-operational satellites, rocket bodies, and fragments generated from explosions, collisions, or faulty payload assembly.

Loading next visibility...
Identifier
41199, 2000-055DC
Orbit
SSO
Country
Flag of USUS
Related business
Manufacturer
Unknown
Mission
Spacecraft
Bus & Motor
Unknown
Mass
Unknown
Launch date (UTC)
2000-09-21 (25 years ago)
Launch vehicle
Unknown
Launch site
Air Force Western Test Range (AFWTR)
Object type
Payload
Rocket body
Debris
Shape & HBR
Unknown shape, 0.1 m
Radar Cross Section
Small (<0.1 m²)

Expand to show TLE details & history
Last TLE update: 5 hours ago

TLE from 5 hours ago
0 NOAA 16 DEB
1 41199U 00055DC  26034.48082991  .00003815  00000-0  20403-2 0  9998
2 41199  98.7476  52.8283 0058180 349.5551  10.4408 14.12869402520280
Epoch: 2026-02-03T11:32Z
TLE epoch observation values (Epoch: 2026-02-03T11:32:23.704Z)
Latitude
-0.00006°
Longitude
106.06839°
Altitude
811.118 km
Speed
7.469 km/s
True Right ascension
03h 31m 18s
True Declination
0° 00' 00"
Sunlit
Object was in daylight at epoch
Visualization orbit readout
Latitude
Unknown
Longitude
Unknown
Altitude
Unknown
Speed
Unknown
Apparent Right ascension
Unknown
Apparent Declination
Unknown
Sunlit
N/A
Visualization observer readout
Local Sidereal Time
18:25:06
Azimuth
Unknown
Elevation
Unknown
Doppler factor
Unknown
Orbital elements
Apogee altitude
888.773 km
Perigee altitude
804.705 km
Semi-major axis
7,224.876 km
Eccentricity
0.00582
Inclination
98.7476°
RAAN
52.8283°
Arg. of periapsis
349.5551°
True anomaly
10.56249°
Mean anomaly
10.4408°
Eccentric anomaly
10.50156°
Mean motion
3.53425 °/min
Orbital period
101.86 mins
BSTAR
0.0020403
Loading maneuver chart data...
Computing Atmospheric mass density...
Loading historical data...
Loading historical data...
Loading historical data...
Loading historical data...
Loading historical data...
Loading historical data...
Loading historical data...

Documentation

Showing up to 5 results
|